Regional Weather Roundup
Issued by NWS Raleigh/Durham, NC

Home | Current Version | Previous Version | Text Only | Print | Product List | Glossary On
Versions: 1 2 3 4 5 6 7 8 9 10 11 12 13 14 15 16 17 18 19 20 21 22 23 24 25 26 27 28 29 30 31 32 33 34 35 36 37 38 39 40 41 42 43 44 45 46 47 48 49 50
000
ASUS42 KRAH 280610
RWRRAH
NORTH CAROLINA WEATHER ROUNDUP
NATIONAL WEATHER SERVICE RALEIGH NC
200 AM EDT MON JUL 28 2014

NOTE: "FAIR" INDICATES FEW OR NO CLOUDS BELOW 12,000 FEET WITH NO
SIGNIFICANT WEATHER AND/OR OBSTRUCTIONS TO VISIBILITY.

NCZ001-053-055-056-065-067-280700-
WESTERN NORTH CAROLINA

CITY           SKY/WX    TMP DP  RH WIND       PRES   REMARKS
ASHEVILLE      TSTM      64  63  96 N10       30.00F FOG
JEFFERSON      CLOUDY    67  58  74 W9        29.94R
MORGANTON      RAIN      68  66  94 SW7       29.95F
HICKORY        RAIN      70  66  87 W13G21    29.91R
RUTHERFORDTON  CLOUDY    69  67  90 CALM      29.93S
MOUNT AIRY     CLOUDY    72  67  84 W3        29.81F
BOONE          CLOUDY    64  62  94 W9        29.97F THUNDER
$$

NCZ021-022-025-041-071-084-088-280700-
CENTRAL NORTH CAROLINA

CITY           SKY/WX    TMP DP  RH WIND       PRES   REMARKS
CHARLOTTE      CLOUDY    73  69  87 NW10      29.89R
GREENSBORO     LGT RAIN  77  69  76 W16       29.81R
WINSTON-SALEM  LGT RAIN  75  67  76 W10G20    29.85R
RALEIGH-DURHAM CLOUDY    78  70  76 SW8       29.75F
FORT BRAGG     CLOUDY    86  69  56 W6        29.75F
FAYETTEVILLE   CLOUDY    85  72  65 SW18G28   29.76F
BURLINGTON     CLOUDY    82  67  60 SW13      29.79R
LAURINBURG     CLOUDY    82  73  74 SW15      29.77F
$$

NCZ011-015-027-028-043-044-047-080-103-280700-
NORTHEASTERN NORTH CAROLINA

CITY           SKY/WX    TMP DP  RH WIND       PRES   REMARKS
ROCKY MT-WILSO CLOUDY    79  73  82 S8        29.74F
GREENVILLE     CLOUDY    81  73  78 SW8       29.77F
WASHINGTON     CLOUDY    79  74  84 S6        29.76F
ELIZABETH CITY PTCLDY    80  74  81 S14G23    29.72F
MANTEO         NOT AVBL
CAPE HATTERAS  CLOUDY    81  79  94 SW13G23   29.81F
$$

NCZ078-087-090-091-093-098-101-280700-
SOUTHEASTERN NORTH CAROLINA

CITY           SKY/WX    TMP DP  RH WIND       PRES   REMARKS
LUMBERTON      CLOUDY    83  73  72 SW10      29.80F
GOLDSBORO      CLOUDY    83  77  81 SW9       29.74F
KINSTON        CLOUDY    81  73  77 S7        29.77F
KENANSVILLE    CLOUDY    82  71  70 CALM      29.78F
NEW BERN       CLOUDY    83  74  74 SW9       29.79F
CHERRY POINT   CLOUDY    83  77  82 SW12      29.81F
BEAUFORT       CLOUDY    83  79  88 SW15        N/A
JACKSONVILLE   CLOUDY    82  76  81 SW9       29.79F
WILMINGTON     MOCLDY    84  78  82 SW13      29.81F HX  95
$$



USA.gov is the U.S. government's official web portal to all federal, state and local government web resources and services.